{"data":{"norad_id":42840,"epoch":"2026-05-24T22:13:28.360416Z","epoch_age_seconds":77859,"freshness":"FRESH","line1":"1 42840U 17042R   26144.92602269  .00015276  00000+0  53815-3 0  9990","line2":"2 42840  97.3771 323.6829 0008566 140.5685 219.6180 15.29353071484651","mean_motion":15.29353071,"eccentricity":0.0008566,"inclination_deg":97.3771,"raan_deg":323.6829,"arg_perigee_deg":140.5685,"mean_anomaly_deg":219.618,"bstar":0.00053815,"rev_number":48465,"period_min":94.15745960208,"perigee_km":471.87226514255,"apogee_km":483.61776220838,"semimajor_km":6855.8820136755,"source":"CELESTRAK","updated_at":"2026-05-25T13:38:13.530057Z"}}